Seeley, CA

3:56 AM PDT on August 30, 2016 (GMT -0700)
El Centro Naval Air Facility

Weather History for KNJK - October, 2011

Change the Weather History Date:

Friday, October 7, 2011

  Actual Average Record
Temperature  
Mean Temperature 67 °F -  
Max Temperature 81 °F 93 °F 108 °F (1996)
Min Temperature 53 °F 65 °F 53 °F (2007)
Cooling Degree Days 2    
Growing Degree Days 17 (Base 50)    
Moisture  
Dew Point 33 °F    
Average Humidity 32    
Maximum Humidity 58    
Minimum Humidity 12    
Precipitation  
Precipitation 0.00 in - - ()
Sea Level Pressure  
Sea Level Pressure 30.00 in    
Wind  
Wind Speed 10 mph (West)    
Max Wind Speed 16 mph    
Max Gust Speed 22 mph    
Visibility 10 miles    
Events      
Averages and records for this station are not official NWS values.
T = Trace of Precipitation, MM = Missing Value Source: NWS Daily Summary

Daily Weather History Graph

Daily Weather History Graph

Search for Another Location

Airport or City:

Trip Planner

Search our weather history database for the weather conditions in past years. The results will help you decide how hot, cold, wet, or windy it might be!

Date:

Astronomy

Oct. 07, 2011 Rise Set
Actual Time 6:40 AM PDT 6:19 PM PDT
Civil Twilight 6:16 AM PDT 6:44 PM PDT
Nautical Twilight 5:47 AM PDT 7:12 PM PDT
Astronomical Twilight 5:18 AM PDT 7:41 PM PDT
Moon 3:54 PM PDT (10/7) 2:45 AM PDT (10/7)
Length of Visible Light 12h 28m
Length of Day
11h 38m
Waxing Gibbous, 84% of the Moon is Illuminated
Oct 7
Waxing Gibbous
Oct 11
Full
Oct 19
Last Quarter
Oct 26
New
Nov 2
First Quarter

Hourly Weather History & Observations

Time (PDT) Temp. Dew Point Humidity Pressure Visibility Wind Dir Wind Speed Gust Speed Precip Events Conditions
12:56 AM 61.0 °F 41.0 °F 48% 29.93 in 10.0 mi West 16.1 mph - N/A   Clear
1:56 AM 61.0 °F 39.9 °F 46% 29.95 in 10.0 mi WSW 12.7 mph - N/A   Scattered Clouds
2:56 AM 60.1 °F 39.9 °F 47% 29.95 in 10.0 mi West 10.4 mph - N/A   Scattered Clouds
3:56 AM 57.0 °F 41.0 °F 55% 29.94 in 10.0 mi WSW 8.1 mph - N/A   Clear
4:56 AM 55.0 °F 37.9 °F 53% 29.96 in 10.0 mi West 5.8 mph - N/A   Clear
5:56 AM 53.1 °F 37.9 °F 57% 29.98 in 10.0 mi West 6.9 mph - N/A   Clear
6:56 AM 53.6 °F 39.2 °F 58% 29.96 in 10.0 mi WSW 8.1 mph - N/A   Clear
7:00 AM - - N/A% - - North - - N/A   Unknown
7:56 AM 59.0 °F 39.0 °F 48% 30.03 in 10.0 mi West 10.4 mph - N/A   Clear
8:56 AM 66.9 °F 39.0 °F 36% 30.05 in 10.0 mi WNW 11.5 mph - N/A   Clear
9:56 AM 73.0 °F 35.1 °F 25% 30.05 in 10.0 mi Variable 5.8 mph - N/A   Clear
10:56 AM 75.0 °F 30.9 °F 20% 30.06 in 10.0 mi North 9.2 mph 17.3 mph N/A   Clear
11:56 AM 78.1 °F 30.9 °F 18% 30.05 in 10.0 mi North 8.1 mph - N/A   Clear
12:56 PM 79.0 °F 25.0 °F 14% 30.03 in 10.0 mi NNW 12.7 mph 18.4 mph N/A   Partly Cloudy
1:56 PM 81.0 °F 27.0 °F 14% 30.01 in 10.0 mi NNE 11.5 mph 17.3 mph N/A   Partly Cloudy
2:56 PM 80.1 °F 25.0 °F 13% 30.01 in 10.0 mi North 12.7 mph 21.9 mph N/A   Partly Cloudy
3:56 PM 81.0 °F 23.0 °F 12% 30.01 in 10.0 mi NNW 12.7 mph - N/A   Partly Cloudy
4:56 PM 80.1 °F 21.9 °F 12% 29.99 in 10.0 mi Variable 4.6 mph - N/A   Partly Cloudy
5:56 PM 75.0 °F 30.0 °F 19% 29.99 in 10.0 mi SE 3.5 mph - N/A   Partly Cloudy
6:56 PM 71.1 °F 28.0 °F 20% 30.00 in 10.0 mi South 3.5 mph - N/A   Clear
7:56 PM 70.0 °F 27.0 °F 20% 30.01 in 10.0 mi SSE 4.6 mph - N/A   Clear
8:56 PM 66.9 °F 28.0 °F 23% 30.03 in 10.0 mi South 4.6 mph - N/A   Clear
9:56 PM 62.1 °F 32.0 °F 32% 30.04 in 10.0 mi WSW 4.6 mph - N/A   Clear
10:56 PM 59.0 °F 32.0 °F 36% 30.04 in 10.0 mi West 4.6 mph - N/A   Clear
11:56 PM 57.9 °F 32.0 °F 37% 30.03 in 10.0 mi West 5.8 mph - N/A   Clear